Regional Weather Roundup
Issued by NWS

Current Version | Previous Version | Text Only | Print | Product List | Glossary On
Versions: 1 2 3 4 5 6 7 8 9 10 11 12 13 14 15 16 17 18 19 20 21 22 23 24 25 26 27 28 29 30 31 32 33 34 35 36 37 38 39 40 41 42 43 44 45 46 47 48 49 50
256
ASUS42 KTBW 211216
RWRFL
FLORIDA REGIONAL WEATHER ROUNDUP
NATIONAL WEATHER SERVICE TAMPA BAY RUSKIN FL
800 AM EDT SAT APR 21 2018

NOTE: "FAIR" INDICATES FEW OR NO CLOUDS BELOW 12,000 FEET WITH NO
SIGNIFICANT WEATHER AND/OR OBSTRUCTIONS TO VISIBILITY.

FLZ001>010-012>015-112-114-115-211300-
PANHANDLE FLORIDA

CITY           SKY/WX    TMP DP  RH WIND       PRES   REMARKS
PENSACOLA      FAIR      60  50  69 NE7       30.18R
PENSACOLA NAS  MOCLDY    64  56  75 NE12      30.16R
MILTON NAS     FAIR      53  49  86 NE7       30.19R
CRESTVIEW      CLOUDY    54  47  77 E5        30.22R
DUKE FIELD     CLOUDY    57  47  71 CALM      30.19R
VALPARAISO     MOCLDY    60  48  66 NE7       30.18R
MARY ESTHER    PTCLDY    60  51  73 NE6       30.17R
TRI COUNTY     PTSUNNY   58  51  78 NE6       30.22S
PANAMA CITY    CLOUDY    59  53  80 CALM      30.19R
TYNDALL AFB    CLOUDY    60  55  83 NE5       30.19R
APALACHICOLA   CLOUDY    65  60  84 NE9       30.17R

STATION/POSITION SKY/WX   TEMP    WIND        PRES    WAVE   SWELL
                          AIR SEA DIR/SP/G            HT/PER HT/PER
                          (F)     (DEG/KT/KT) (MB)    (FT/S) (FT/S)
30.1N   87.6W              67      90/ 17/ 21 1020.6R   4/ 5
29.2N   88.2W                 70   80/ 14/ 16 1019.5S   2/ 6
28.8N   86.0W              69 73   90/ 12/ 16 1019.9R   4/ 6   2/10
PANAMA CITY BEAC           62 69   60/  4/  8 1022.6R
TOWER C                    65      70/ 21/ 23 1021.4S

$$
FLZ011-016>038-118-127-128-134-139-239-211300-
NORTH FLORIDA

CITY           SKY/WX    TMP DP  RH WIND       PRES   REMARKS
MARIANNA       FAIR      58  50  75 NE8       30.22R
TALLAHASSEE    CLOUDY    63  46  54 NE8       30.21R
PERRY          CLOUDY    62  50  63 NE6       30.21S
LIVE OAK       PTSUNNY   61  52  72 NE7       30.23S
CROSS CITY     CLOUDY    62  58  88 NE8       30.19S
LAKE CITY      CLOUDY    59  54  82 NE9       30.22R
GAINESVILLE    CLOUDY    66  60  81 NE8       30.22R
WILLISTON        N/A     66  64  94 CALM      30.18R
PALATKA        PTSUNNY   64  64 100 N6        30.20R
MAYPORT NAS    CLOUDY    67  64  90 NE16G23   30.21R FOG
JACKSONVILLE   PTSUNNY   64  60  87 NE15      30.22R
JAX NAS        HVY RAIN  66  63  90 NE12      30.22R FOG
JAX CECIL      CLOUDY    63  63 100 NE12      30.22R FOG
FERNANDINA BEA CLOUDY    65  59  80 NE15G23   30.21S
ST AUGUSTINE   LGT RAIN  69  66  90 E12       30.20R FOG
PALM COAST     PTSUNNY   70  66  88 E10       30.18R

STATION/POSITION SKY/WX   TEMP    WIND        PRES    WAVE   SWELL
                          AIR SEA DIR/SP/G            HT/PER HT/PER
                          (F)     (DEG/KT/KT) (MB)    (FT/S) (FT/S)
SHELL POINT      NOT AVBL
KEATON BEACH               61      50/ 11/ 15 1022.4R
CEDAR KEY                  63      40/ 13/ 15 1021.2R
FERNANDINA                 66 66   20/  7/ 14 1024.4R
30.7N   81.3W                 66                N/A     6/ 6   2/11
MAYPORT                    66 66   40/ 15/ 19 1023.1R
31.4N   80.9W              65 64   60/ 19/ 23 1024.7R   5/ 5   2/ 8
ST AUGUSTINE               69 66  110/  9/ 11 1022.5R

$$
FLZ040-043>046-052-053-057-058-063-144-211300-
INTERIOR CENTRAL FLORIDA

CITY           SKY/WX    TMP DP  RH WIND       PRES   REMARKS
OCALA          FAIR      64  62  93 NE5       30.18R
LEESBURG       PTSUNNY   66  66 100 NE6       30.17R FOG
SANFORD        CLOUDY    69  66  90 E7        30.16R
ORLANDO EXEC   PTSUNNY   70  68  93 E8        30.16R
ORLANDO INTL   PTSUNNY   71  68  90 NE8       30.15R
KISSIMMEE      PTSUNNY   71  68  90 E8        30.16R
WINTER HAVEN   CLOUDY    67  65  93 NE5       30.16R
LAKELAND       MOSUNNY   66  66 100 NE7       30.14R
BARTOW         SUNNY     66  66 100 NE7       30.15  FOG
SEBRING        FAIR      69  66  90 NE3       30.14R
OKEECHOBEE     FAIR      66  64  94 CALM      30.13R FOG

$$
FLZ041-047-054-059-064-141-147-211300-
EAST CENTRAL FLORIDA

CITY           SKY/WX    TMP DP  RH WIND       PRES   REMARKS
ORMOND BEACH   PTSUNNY   72  66  83 E9        30.17R
DAYTONA BEACH  PTSUNNY   73  67  81 E10       30.17R
DELAND         CLOUDY    68  66  94 E5        30.16S
NEW SMYRNA BEA MOSUNNY   73  66  78 E14       30.18R
JFK SPACE CTR  CLOUDY    73  70  88 E12G23    30.15R
TITUSVILLE     PTSUNNY   75  72  88 E12       30.16R
CAPE CANAVERAL DRIZZLE   72  68  88 E13G21    30.15R FOG
PATRICK AFB    FAIR      76  69  79 E13       30.14R
MELBOURNE      CLOUDY    77  68  73 E13       30.14R
VERO BEACH     FAIR      75  67  76 E8        30.13R
FT PIERCE      FAIR      75  68  78 E10       30.13R
STUART         MOSUNNY   77  68  73 E12G17    30.14R

STATION/POSITION SKY/WX   TEMP    WIND        PRES    WAVE   SWELL
                          AIR SEA DIR/SP/G            HT/PER HT/PER
                          (F)     (DEG/KT/KT) (MB)    (FT/S) (FT/S)
28.5N   80.2W              72 74   80/ 21/ 25 1021.1R   8/ 8   5/11
28.9N   78.5W              72 74   70/ 21/ 27 1022.4R   9/ 8   3/11
TRIDENT PIER               71 76   60/ 14/ 19 1022.3R
28.4N   80.5W                 76                N/A     4/ 5   2/11
27.5N   80.2W                 74                N/A     4/ 9   2/14

$$
FLZ050-056-061-142-242-148-248-149-249-151-251-155-255-
160-260-211300-
WEST CENTRAL FLORIDA

CITY           SKY/WX    TMP DP  RH WIND       PRES   REMARKS
CRYSTAL RIVER  CLOUDY    63  61  94 E5        30.16R
INVERNESS      CLOUDY    63  63 100 NE6       30.17R FOG
BROOKSVILLE    FAIR      64  61  90 NE8       30.15R
CLEARWATER AIR FAIR      66  64  94 E9        30.12S
ST PETE CLEARW PTSUNNY   69  66  90 E10       30.13R
TAMPA INTL     PTSUNNY   68  63  84 VRB3      30.14R
TAMPA EXEC     PTSUNNY   64  63  94 NE3       30.14S
PLANT CITY     FAIR      68  64  88 NE7       30.16S FOG
MACDILL AFB    FAIR      69  65  88 E10       30.13R
PETER O KNIGHT FAIR     N/A N/A N/A NE10      30.14R
ST PETERSBURG  PTSUNNY   71  68  90 E12       30.12R
SARASOTA       FAIR      69  67  93 E10       30.10R
VENICE         FAIR      70  68  94 E9        30.12R FOG

STATION/POSITION SKY/WX   TEMP    WIND        PRES    WAVE   SWELL
                          AIR SEA DIR/SP/G            HT/PER HT/PER
                          (F)     (DEG/KT/KT) (MB)    (FT/S) (FT/S)
27.3N   84.2W                 74                N/A     4/ 6
CLEARWATER BEACH           69 74   60/  8/ 11 1020.0R
MIDDLE TAMPA BAY           69     100/ 13/ 15 1019.9R
VENICE                     69 74   90/  7/  8 1019.8R

$$
FLZ066-069-070-075>078-162-262-165-265-211300-
SOUTHWEST FLORIDA AND KEYS

CITY           SKY/WX    TMP DP  RH WIND       PRES   REMARKS
PUNTA GORDA    FAIR      69  66  90 E3        30.13R FOG
FT MYERS       FAIR      70  68  93 E5        30.11R
SOUTHWEST INTL FAIR      69  68  96 E5        30.12R
NAPLES         FAIR      68  66  93 NE5       30.11R
MARCO ISLAND   FAIR      65  62  90 NE6       30.12R
IMMOKALEE      FAIR      68  66  94 N3        30.13R
MARATHON       FAIR      77  67  71 E8        30.09R
KEY WEST NAS   PTSUNNY   75  68  78 NE6       30.09R
KEY WEST INTL  FAIR      75  69  81 NE5       30.10R

STATION/POSITION SKY/WX   TEMP    WIND        PRES    WAVE   SWELL
                          AIR SEA DIR/SP/G            HT/PER HT/PER
                          (F)     (DEG/KT/KT) (MB)    (FT/S) (FT/S)
NAPLES                     69 79              1019.1R
26.0N   85.6W              75 79  110/  8/ 10 1018.5R   3/ 6   2/ 6
DRY TORTUGAS               74      70/  8/  9 1019.2R
SAND KEY                   75                 1018.9R
SOMBRERO KEY               77      40/ 10/ 11 1018.1R
LONG KEY                   77 79   90/  8/  9 1018.4R

$$
FLZ067-068-071>074-168-172>174-211300-
SOUTHEAST FLORIDA

CITY           SKY/WX    TMP DP  RH WIND       PRES   REMARKS
W PALM BEACH   PTSUNNY   76  68  76 NE7       30.12R
BOCA RATON     MOSUNNY   75  70  83 NE5       30.11R
FT LAUDER-EXEC FAIR      77  71  82 NE3       30.11R
FT LAUDERDALE  FAIR      77  69  76 E7        30.10R
POMPANO BEACH  FAIR      77  70  79 E6        30.11R
PEMBROKE PINES FAIR      75  69  81 CALM      30.12R
OPA LOCKA      FAIR      74  69  85 CALM      30.11R
MIAMI          PTSUNNY   76  69  79 E3        30.11R
WEST KENDALL   FAIR      71  66  84 CALM      30.11R
HOMESTEAD      FAIR      70  67  90 CALM      30.10R

STATION/POSITION SKY/WX   TEMP    WIND        PRES    WAVE   SWELL
                          AIR SEA DIR/SP/G            HT/PER HT/PER
                          (F)     (DEG/KT/KT) (MB)    (FT/S) (FT/S)
PORT EVERGLADES            78      70/  5/  7 1019.6R
VIRGINIA KEY               78 80   60/  7/ 10 1018.5R
LAKE WORTH                 77 78   70/ 14/ 15 1



USA.gov is the U.S. government's official web portal to all federal, state and local government web resources and services.